Regional Weather Roundup
Issued by NWS

Home | Current Version | Previous Version | Text Only | Print | Product List | Glossary On
Versions: 1 2 3 4 5 6 7 8 9 10 11 12 13 14 15 16 17 18 19 20 21 22 23 24 25 26 27 28 29 30 31 32 33 34 35 36 37 38 39 40 41 42 43 44 45 46 47 48 49 50
445
ASCA44 KEWX 170120
RWRMX

LATIN AMERICA AND CARIBBEAN REGIONAL WEATHER ROUNDUP
NATIONAL WEATHER SERVICE AUSTIN/SAN ANTONIO TX
700 PM CST TUE JAN 16 2018

NOTE: "FAIR" INDICATED FEW OR NO CLOUDS BELOW 12,000 FEET WITH NO
SIGNIFICANT WEATHER AND/OR OBSTRUCTIONS TO VISIBILITY.

BAJA CALIFORNIA

CITY           SKY/WX    TMP DP  RH WIND       PRES   REMARKS
LORETO         PTCLDY    72  57  60 CALM      30.01S
LA PAZ           N/A     75  52  43 NW8       30.03R
MEXICALI       MOCLDY    73  34  23 NW6       30.07S
S.J. DEL CABO  PTCLDY    73  59  60 E8        30.03R
TIJUANA        CLOUDY    64  55  72 CALM      30.12S

NORTHWESTERN MEXICO

CITY           SKY/WX    TMP DP  RH WIND       PRES   REMARKS
CULIACAN       PTCLDY    75  59  57 SW7       29.97R
DURANGO        PTCLDY    66  14  13 CALM      30.21R
GUAYMAS        PTCLDY    66  57  72 S12       29.94R
HERMOSILLO     PTCLDY    79  34  19 SW5       30.00F
CD. JUAREZ     MOCLDY    36   7  30 E12       30.44S WCI  27
LOS MOCHIS     CLEAR     72  52  49 W16       30.02
OBREGON        PTCLDY    70  45  40 SW3       29.96S

NORTHEASTERN MEXICO

CITY           SKY/WX    TMP DP  RH WIND       PRES   REMARKS
CHIHUAHUA      PTCLDY    36  19  51 E8        30.39R WCI  29
MATAMOROS      DRIZZLE   30  28  93 CALM      30.61R
MONCLOVA         N/A    N/A N/A N/A MISG        N/A
MONTERREY      CLOUDY    32  25  74 NW14G30   30.61R WCI  22
NUEVO LAREDO   CLOUDY    34  25  69 CALM      30.69R
PIEDRAS NEGRAS CLOUDY    36  16  44 N12       30.69R WCI  27
REYNOSA        DRIZZLE   32  28  86 N12       30.66  FOG     WCI  23
SALTILLO       DRZL/FOG  25  25 100 CALM      30.48R VSB 1/8
TORREON        MOCLDY    57  39  51 NE13      30.26R
CD. VICTORIA   CLOUDY    39  30  70 MISG      30.54R

WESTERN MEXICO

CITY           SKY/WX    TMP DP  RH WIND       PRES   REMARKS
AGUASCALIENTES CLEAR     66   9  10 W5        30.24R
COLIMA         CLEAR     72  63  73 S12       30.07R
DEL BAJIO      CLEAR     63  23  22 NE9       30.30R
GUADALAJARA    CLEAR     66  18  15 S5        30.16S
MANZANILLO     PTCLDY    77  72  83 NW6       29.95S
MAZATLAN       PTCLDY    72  61  68 NW6       29.98R
P. VALLARTA      N/A    N/A N/A N/A S7        29.98R
URUAPAN        CLEAR     66  43  42 CALM      30.20R
ZACATECAS      PTCLDY    57  27  30 E14       30.26R

CENTRAL MEXICO

CITY           SKY/WX    TMP DP  RH WIND       PRES   REMARKS
CUERNAVACA     PTCLDY    70  32  24 N3        30.15
MEXICO CITY    CLEAR     55  30  38 N10       30.37R
MORELIA        CLEAR     61  28  29 N6        30.22R
POZA RICA      CLOUDY    63  57  82 N23       30.32S
PUEBLA         CLEAR     48  34  57 N8        30.38R WCI  45
QUERETARO      CLEAR     52  36  54 E12       30.38R
S. LUIS POTOSI CLEAR     50  32  50 E10       30.34R WCI  46
TAMPICO        DRIZZLE   46  45  93 MISG      30.41R
TOLUCA         PTCLDY    48  23  37 SE10      30.37R WCI  44

SOUTHERN MEXICO

CITY           SKY/WX    TMP DP  RH WIND       PRES   REMARKS
ACAPULCO       PTCLDY    81  70  69 W7        29.92R
B. DE HUATULCO PTCLDY   N/A N/A N/A CALM      29.98R
OAXACA         CLOUDY    59  41  51 NW15      30.28R
P. ESCONDIDO   PTCLDY    79  68  69 CALM      30.04R
VERACRUZ       MOCLDY    72  63  73 NE13      30.26
ZIHUATANEJO    CLEAR     81  64  57 CALM      29.95

YUCATAN PENINSULA

CITY           SKY/WX    TMP DP  RH WIND       PRES   REMARKS
CAMPECHE       CLOUDY    72  64  78 N12G23    30.15S
CANCUN         MOCLDY    68  63  83 NW3       30.17R
CHETUMAL       CLOUDY    72  59  64 CALM      30.15S
CD. DEL CARMEN CLOUDY   N/A N/A N/A N6        30.23R
COZUMEL        PTCLDY    73  64  73 N13       30.15R
MERIDA         CLOUDY    72  59  64 NE7       30.21R
MINATITLAN     CLOUDY    70  64  83 CALM      30.21S
TAPACHULA      PTCLDY    75  64  69 CALM      29.91R
TUX. GUTIERREZ CLOUDY    66  54  63 NW16      30.18R
VILLAHERMOSA   CLOUDY    68  59  73 E5        30.24R

CENTRAL AMERICA

CITY           SKY/WX    TMP DP  RH WIND       PRES   REMARKS
MANAGUA        PTCLDY    81  68  65 E7        29.92R

CARIBBEAN

CITY           SKY/WX    TMP DP  RH WIND       PRES   REMARKS
ARUBA          PTCLDY    81  73  78 E12       29.92R
CURACAO        PTCLDY    81  73  78 E12       29.94R
KINGSTON       PTCLDY    79  75  89 W3        29.97S
NASSAU         LGT RAIN  75  64  69 N14       30.17S
SAN JUAN       MOCLDY    75  73  94 SE6       30.06R
SANTO DOMINGO  MOCLDY    73  72  94 NE5       30.03R
ST. CROIX      CLEAR     75  73  94 NE8       30.05R
ST. KITTS      PTCLDY    77  72  83 NE12      30.03R
ST. MAARTEN    PTCLDY    79  70  73 E12       30.03S
ST. THOMAS     CLEAR     75  73  94 E8        30.04R

$$





USA.gov is the U.S. government's official web portal to all federal, state and local government web resources and services.